Regional Weather Roundup
Issued by NWS

Home | Current Version | Previous Version | Text Only | Print | Product List | Glossary Off
Versions: 1 2 3 4 5 6 7 8 9 10 11 12 13 14 15 16 17 18 19 20 21 22 23 24 25 26 27 28 29 30 31 32 33 34 35 36 37 38 39 40 41 42 43 44 45 46 47 48 49 50

535
ASUS43 KMKX 191721
RWRWI

WISCONSIN REGIONAL WEATHER ROUNDUP
NATIONAL WEATHER SERVICE MILWAUKEE/SULLIVAN WI
1100 AM CST SUN FEB 19 2017

NOTE: "FAIR" INDICATES FEW OR NO CLOUDS BELOW 12,000 FEET WITH NO
SIGNIFICANT WEATHER AND/OR OBSTRUCTIONS TO VISIBILITY.

WIZ001-002-006>008-014>016-023>028-191800-
NORTHWEST WISCONSIN

CITY           SKY/WX    TMP DP  RH WIND       PRES   REMARKS
SUPERIOR ARPT  SUNNY     41  32  70 E5        29.99S
ASHLAND        MOSUNNY   45  33  63 E5        30.02R
HAYWARD        MOSUNNY   50  30  46 VRB3      29.98S
SIREN          CLOUDY    49  35  57 SE5       29.96F
CUMBERLAND     SUNNY     45  34  65 SE5       29.98S
RICE LAKE      SUNNY     48  35  60 CALM      30.00F
CHETEK         SUNNY     48  36  61 SE7       29.99F
LADYSMITH      SUNNY     51  34  52 CALM      30.01S
EAU CLAIRE     CLOUDY    51  37  58 SE8       29.99F
MENOMONIE      SUNNY     48  38  67 E7        30.00S
NEW RICHMOND   SUNNY     52  35  52 SE10G17   29.97S
OSCEOLA        MOSUNNY   53  39  59 SE9       29.98S
$$

WIZ003>005-009-010-017-018-191800-
NORTH CENTRAL WISCONSIN

CITY           SKY/WX    TMP DP  RH WIND       PRES   REMARKS
MANITOWISH WTR CLOUDY    41  31  67 CALM      30.00S
ARBOR VITAE    MOSUNNY   45  31  59 CALM      30.00S
WOODRUFF       MOSUNNY   45  31  59 CALM      30.00S
RHINELANDER    SUNNY     45  31  58 CALM      30.02R
EAGLE RIVER    MOSUNNY   43  29  56 CALM      30.01S
LAND O LAKES   MOSUNNY   47  29  50 CALM      30.02S
PHILLIPS       MOSUNNY   49  32  51 CALM      29.99S
TOMAHAWK       SUNNY     49  30  47 CALM      30.01F
MEDFORD        SUNNY     44  33  65 S5        30.00F
MERRILL        NOT AVBL
$$

WIZ029-030-035-036-043>047-191800-
CENTRAL WISCONSIN

CITY           SKY/WX    TMP DP  RH WIND       PRES   REMARKS
WAUSAU         SUNNY     45  34  65 CALM      30.00F
MOSINEE        MOSUNNY   48  37  66 CALM      30.03S
MARSHFIELD     SUNNY     47  33  58 SE6       30.00F
STEVENS POINT  SUNNY     47  32  56 E3        30.03S
WAUPACA        SUNNY     55  33  42 CALM      30.04S
WAUTOMA        MOSUNNY   53  35  50 VRB3      30.05R
WISC RAPIDS    MOSUNNY   53  34  48 E3        30.03F
CAMP DOUGLAS   PTSUNNY   54  37  54 SE3       30.02S
$$

WIZ011>013-019>022-031-037>040-048>050-191800-
NORTHEAST WISCONSIN

CITY           SKY/WX    TMP DP  RH WIND       PRES   REMARKS
ANTIGO         SUNNY     41  31  67 CALM      30.03S
SHAWANO        SUNNY     51  32  47 CALM      30.05S
OCONTO         SUNNY     50  31  48 CALM      30.05S
STURGEON BAY   SUNNY     48  32  53 VRB3      30.06R
GREEN BAY      SUNNY     54  36  50 E3        30.04R
MANITOWOC      SUNNY     53  31  42 MISG      30.06R
APPLETON       MOSUNNY   54  30  40 CALM      30.03R
CLINTONVILLE   SUNNY     50  32  50 CALM      30.04S
OSHKOSH        SUNNY     51  34  52 E5        30.05R
$$

WIZ032>034-041-042-053>061-191800-
SOUTHWEST WISCONSIN

CITY           SKY/WX    TMP DP  RH WIND       PRES   REMARKS
LA CROSSE      SUNNY     48  34  58 SE6       30.02F
SPARTA         SUNNY     56  36  48 CALM      30.03S
VIROQUA        SUNNY     54  32  43 CALM      30.02S
BOSCOBEL       SUNNY     49  33  54 E5        30.04S
PRAIRIE DU CHI MOSUNNY   46  34  63 CALM      30.04R
PLATTEVILLE    SUNNY     54  41  61 SE7       30.04S
$$

WIZ056-057-062-063-064-067-068-191800-
SOUTH CENTRAL WISCONSIN

CITY           SKY/WX    TMP DP  RH WIND       PRES   REMARKS
REEDSBURG      SUNNY     55  36  48 S3        30.04S
BARABOO/DELLS  SUNNY     54  35  48 E3        30.04R
LONE ROCK      SUNNY     50  35  56 CALM      30.05S
MINERAL POINT  SUNNY     55  32  41 SE9       30.04S
MADISON        MOSUNNY   55  36  48 E6        30.05R
MIDDLETON      SUNNY     58  34  40 S7        30.06R
WATERTOWN      SUNNY     54  37  51 S3        30.05R
MONROE         SUNNY     55  32  41 SE7       30.05S
JANESVILLE     SUNNY     55  34  44 CALM      30.05S
$$

WIZ051-052-058>065-066-070>072-191800-
SOUTHEAST WISCONSIN

CITY           SKY/WX    TMP DP  RH WIND       PRES   REMARKS
MILWAUKEE      MOSUNNY   57  30  35 NE7       30.07R
WAUKESHA       SUNNY     57  28  33 E6        30.06R
MILWAUKEE/TIMM SUNNY     57  25  28 CALM      30.06R
RACINE         SUNNY     57  30  35 NE7       30.07R
KENOSHA        SUNNY     58  32  37 VRB3      30.06R
FOND DU LAC    SUNNY     51  34  52 CALM      30.05R
SHEBOYGAN      SUNNY     53  32  44 CALM      30.05R
WEST BEND      SUNNY     55  32  41 CALM      30.05R
JUNEAU         SUNNY     51  37  59 E3        30.06R
$$

LSZ147-162-191800-
LAKE SUPERIOR

STATION/POSITION TIME  TEMP    WIND        PRES    WAVE
                       AIR SEA DIR/SP/G            HT/PER
                 (UTC) (F)     (DEG/KT/KT) (MB)    (FT/S)
DEVILS ISLAND    1700   37      60/  5/  6 1017.3F
PORT WING        1640   36     330/  1/  4 1016.3R
SAXON HARBOR     1630   37     320/  2/  2 1016.3S
$$

LMZ867-665-643>646-191800-
LAKE MICHIGAN

STATION/POSITION TIME  TEMP    WIND        PRES    WAVE
                       AIR SEA DIR/SP/G            HT/PER
                 (UTC) (F)     (DEG/KT/KT) (MB)    (FT/S)
CHAMBERS ISLAND  1640   47      10/  2/  3 1017.3R
NORTHPORT PIER   1640   42     320/  6/  8 1017.6R
SISTER BAY       1520             CALM       N/A
KEWAUNEE LAKESHO 1654   50      70/  2/  5 1017.1R
SHEBOYGAN LAKESH 1700   49      20/  3/  4 1017.7R
PORT WASHINGTON  1640   50      50/  3/  4 1018.3S
MILWAUKEE LAKESH 1700   47      50/  3/  3   N/A
KENOSHA   LAKESH 1700   51        CALM     1017.9
$$

TC  - TEMPERATURE IN CELSIUS
VSB - VISIBILITY IN STATUTE MILES
WCI - WIND CHILL INDEX
HX  - HEAT INDEX





USA.gov is the U.S. government's official web portal to all federal, state and local government web resources and services.